This demonstration page uses our WeatherBlox Daily Observations layout. Learn more.

Left ArrowRight Arrow

44.8408, -93.29828

Hourly Observations for September 30, 2017

Temp ( °F °C ) Dew Point ( °F °C ) Humidity (%) Winds ( mph kmh ) Pressure ( in mb ) Visibility ( mi km ) Precip ( " mm )
12:53 am 00:53 Clear 51 10.6 45 7.2 80 80 SE 6 9 30.36 1028 10 16 0.00 0.00
1:53 am 01:53 Clear 50 10 44 6.7 80 80 SE 6 9 30.36 1028 10 16 0.00 0.00
2:53 am 02:53 Clear 49 9.4 45 7.2 86 86 SE 6 9 30.36 1028 10 16 0.00 0.00
3:53 am 03:53 Clear 48 8.9 45 7.2 89 89 SE 6 9 30.35 1028 10 16 0.00 0.00
4:53 am 04:53 Clear 48 8.9 46 7.8 93 93 SE 7 11 30.36 1028 10 16 0.00 0.00
5:53 am 05:53 Clear 48 8.9 45 7.2 89 89 SSE 5 7 30.36 1028 10 16 0.00 0.00
6:53 am 06:53 Mostly Clear 47 8.3 44 6.7 90 90 SSE 5 7 30.37 1028 10 16 0.00 0.00
7:53 am 07:53 Sunny 48 8.9 44 6.7 86 86 SSE 6 9 30.37 1029 10 16 0.00 0.00
8:53 am 08:53 Sunny 52 11.1 45 7.2 77 77 SSE 8 13 30.38 1029 10 16 0.00 0.00
9:53 am 09:53 Sunny 57 13.9 45 7.2 64 64 S 10 17 30.37 1029 10 16 0.00 0.00
10:53 am 10:53 Mostly Sunny 60 15.6 47 8.3 62 62 SSE 14 22 30.37 1028 10 16 0.00 0.00
11:53 am 11:53 Mostly Sunny 64 17.8 47 8.3 54 54 S 16 26 30.34 1027 10 16 0.00 0.00
12:53 pm 12:53 Partly Cloudy 66 18.9 47 8.3 50 50 SSE 14 22 30.31 1026 10 16 0.00 0.00
1:53 pm 13:53 Mostly Cloudy 68 20 46 7.8 45 45 SSE 10 17 30.28 1025 10 16 0.00 0.00
2:53 pm 14:53 Partly Cloudy 69 20.6 45 7.2 42 42 S 15 24 30.25 1024 10 16 0.00 0.00
3:53 pm 15:53 Mostly Cloudy 68 20 46 7.8 45 45 S 9 15 30.24 1024 10 16 0.00 0.00
4:53 pm 16:53 Mostly Cloudy 67 19.4 46 7.8 47 47 SSE 10 17 30.21 1023 10 16 0.00 0.00
5:53 pm 17:53 Mostly Cloudy 67 19.4 45 7.2 45 45 SSE 15 24 30.19 1022 10 16 0.00 0.00
6:53 pm 18:53 Mostly Cloudy 65 18.3 45 7.2 49 49 SE 10 17 30.16 1021 10 16 0.00 0.00
7:53 pm 19:53 Mostly Cloudy 64 17.8 45 7.2 50 50 SE 13 20 30.14 1021 10 16 0.00 0.00
8:53 pm 20:53 Mostly Cloudy 63 17.2 47 8.3 56 56 SE 13 20 30.14 1021 10 16 0.00 0.00
9:53 pm 21:53 Mostly Cloudy 61 16.1 48 8.9 63 63 SE 13 20 30.14 1021 10 16 0.00 0.00
10:53 pm 22:53 Mostly Cloudy 60 15.6 48 8.9 65 65 SSE 10 17 30.15 1021 10 16 0.00 0.00
11:53 pm 23:53 Mostly Cloudy 61 16.1 47 8.3 60 60 SSE 12 19 30.14 1021 10 16 0.00 0.00

Powered by AerisWeather